owner,sensor,date,latitude,longitude,vertical_datum,wind_speed,wind_to_direction,wind_speed_of_gust,qcFlag 
TCOON,ioos:station:TCOON:068:1,2009-09-01T00:00:00Z,27.2970,-97.4049,0.0,1.3,198.0,1.7,'11111222,11111222,11111222' 
TCOON,ioos:station:TCOON:068:1,2009-09-01T01:00:00Z,27.2970,-97.4049,0.0,0.1,192.0,0.4,'11111222,11111222,11111222' 
TCOON,ioos:station:TCOON:068:1,2009-09-01T03:00:00Z,27.2970,-97.4049,0.0,2.3,82.0,2.5,'11111222,11111222,11111222' 
TCOON,ioos:station:TCOON:068:1,2009-09-01T04:00:00Z,27.2970,-97.4049,0.0,2.3,59.0,2.6,'11111222,11111222,11111222' 
TCOON,ioos:station:TCOON:068:1,2009-09-01T05:00:00Z,27.2970,-97.4049,0.0,1.5,104.0,1.9,'11111222,11111222,11111222' 
TCOON,ioos:station:TCOON:068:1,2009-09-01T06:00:00Z,27.2970,-97.4049,0.0,3.9,94.0,4.4,'11111222,11111222,11111222' 
TCOON,ioos:station:TCOON:068:1,2009-09-01T07:00:00Z,27.2970,-97.4049,0.0,2.7,105.0,3.4,'11111222,11111222,11111222' 
TCOON,ioos:station:TCOON:068:1,2009-09-01T08:00:00Z,27.2970,-97.4049,0.0,2.2,97.0,2.7,'11111222,11111222,11111222' 
TCOON,ioos:station:TCOON:068:1,2009-09-01T09:00:00Z,27.2970,-97.4049,0.0,2.4,162.0,2.9,'11111222,11111222,11111222' 
TCOON,ioos:station:TCOON:068:1,2009-09-01T10:00:00Z,27.2970,-97.4049,0.0,2.6,211.0,2.9,'11111222,11111222,11111222' 
TCOON,ioos:station:TCOON:068:1,2009-09-01T11:00:00Z,27.2970,-97.4049,0.0,1.0,217.0,1.3,'11111222,11111222,11111222' 
TCOON,ioos:station:TCOON:068:1,2009-09-01T12:00:00Z,27.2970,-97.4049,0.0,0.4,217.0,0.5,'11111222,11111222,11111222' 
TCOON,ioos:station:TCOON:068:1,2009-09-01T13:00:00Z,27.2970,-97.4049,0.0,2.4,321.0,2.6,'11111222,11111222,11111222' 
TCOON,ioos:station:TCOON:068:1,2009-09-01T14:00:00Z,27.2970,-97.4049,0.0,2.2,319.0,2.3,'11111222,11111222,11111222' 
TCOON,ioos:station:TCOON:068:1,2009-09-01T15:00:00Z,27.2970,-97.4049,0.0,2.0,335.0,2.3,'11111222,11111222,11111222' 
TCOON,ioos:station:TCOON:068:1,2009-09-01T16:00:00Z,27.2970,-97.4049,0.0,2.4,1.0,2.9,'11111222,11111222,11111222' 
TCOON,ioos:station:TCOON:068:1,2009-09-01T17:00:00Z,27.2970,-97.4049,0.0,2.5,12.0,3.4,'11111222,11111222,11111222' 
TCOON,ioos:station:TCOON:068:1,2009-09-01T18:00:00Z,27.2970,-97.4049,0.0,5.3,63.0,6.3,'11111222,11111222,11111222' 
TCOON,ioos:station:TCOON:068:1,2009-09-01T19:00:00Z,27.2970,-97.4049,0.0,5.7,59.0,6.5,'11111222,11111222,11111222' 
TCOON,ioos:station:TCOON:068:1,2009-09-01T20:00:00Z,27.2970,-97.4049,0.0,4.3,52.0,5.4,'11111222,11111222,11111222' 
TCOON,ioos:station:TCOON:068:1,2009-09-01T21:00:00Z,27.2970,-97.4049,0.0,5.1,55.0,6.0,'11111222,11111222,11111222' 
TCOON,ioos:station:TCOON:068:1,2009-09-01T22:00:00Z,27.2970,-97.4049,0.0,4.2,53.0,4.9,'11111222,11111222,11111222' 
TCOON,ioos:station:TCOON:068:1,2009-09-01T23:00:00Z,27.2970,-97.4049,0.0,5.7,31.0,99.0,'11111222,11111222,11144222' 
TCOON,ioos:station:TCOON:068:1,2009-09-02T00:00:00Z,27.2970,-97.4049,0.0,4.9,273.0,5.6,'11111222,11111222,11111222' 
TCOON,ioos:station:TCOON:068:1,2009-09-02T01:00:00Z,27.2970,-97.4049,0.0,3.2,63.0,3.9,'11111222,11111222,11111222' 
TCOON,ioos:station:TCOON:068:1,2009-09-02T02:00:00Z,27.2970,-97.4049,0.0,1.8,35.0,2.1,'11111222,11111222,11111222' 
TCOON,ioos:station:TCOON:068:1,2009-09-02T03:00:00Z,27.2970,-97.4049,0.0,1.8,62.0,2.2,'11111222,11111222,11111222' 
TCOON,ioos:station:TCOON:068:1,2009-09-02T04:00:00Z,27.2970,-97.4049,0.0,2.1,38.0,2.6,'11111222,11111222,11111222' 
TCOON,ioos:station:TCOON:068:1,2009-09-02T05:00:00Z,27.2970,-97.4049,0.0,2.2,320.0,2.4,'11111222,11111222,11111222' 
TCOON,ioos:station:TCOON:068:1,2009-09-02T06:00:00Z,27.2970,-97.4049,0.0,1.5,5.0,1.8,'11111222,11111222,11111222' 
TCOON,ioos:station:TCOON:068:1,2009-09-02T07:00:00Z,27.2970,-97.4049,0.0,1.1,92.0,2.0,'11111222,11111222,11111222' 
TCOON,ioos:station:TCOON:068:1,2009-09-02T08:00:00Z,27.2970,-97.4049,0.0,3.2,326.0,3.6,'11111222,11111222,11111222' 
TCOON,ioos:station:TCOON:068:1,2009-09-02T09:00:00Z,27.2970,-97.4049,0.0,2.4,117.0,3.0,'11111222,11111222,11111222' 
TCOON,ioos:station:TCOON:068:1,2009-09-02T10:00:00Z,27.2970,-97.4049,0.0,3.0,71.0,3.7,'11111222,11111222,11111222' 
TCOON,ioos:station:TCOON:068:1,2009-09-02T11:00:00Z,27.2970,-97.4049,0.0,3.7,84.0,4.3,'11111222,11111222,11111222' 
TCOON,ioos:station:TCOON:068:1,2009-09-02T12:00:00Z,27.2970,-97.4049,0.0,4.1,65.0,4.5,'11111222,11111222,11111222' 
TCOON,ioos:station:TCOON:068:1,2009-09-02T13:00:00Z,27.2970,-97.4049,0.0,4.0,67.0,4.8,'11111222,11111222,11111222' 
TCOON,ioos:station:TCOON:068:1,2009-09-02T14:00:00Z,27.2970,-97.4049,0.0,6.4,62.0,7.1,'11111222,11111222,11111222' 
TCOON,ioos:station:TCOON:068:1,2009-09-02T15:00:00Z,27.2970,-97.4049,0.0,5.7,232.0,6.4,'11111222,11111222,11111222' 
TCOON,ioos:station:TCOON:068:1,2009-09-02T16:00:00Z,27.2970,-97.4049,0.0,1.4,144.0,2.0,'11111222,11111222,11111222' 
TCOON,ioos:station:TCOON:068:1,2009-09-02T17:00:00Z,27.2970,-97.4049,0.0,1.2,193.0,1.6,'11111222,11111222,11111222' 
TCOON,ioos:station:TCOON:068:1,2009-09-02T18:00:00Z,27.2970,-97.4049,0.0,3.1,103.0,4.0,'11111222,11111222,11111222' 
TCOON,ioos:station:TCOON:068:1,2009-09-02T19:00:00Z,27.2970,-97.4049,0.0,3.9,131.0,5.6,'11111222,11111222,11111222' 
TCOON,ioos:station:TCOON:068:1,2009-09-02T20:00:00Z,27.2970,-97.4049,0.0,3.8,96.0,5.0,'11111222,11111222,11111222' 
TCOON,ioos:station:TCOON:068:1,2009-09-02T21:00:00Z,27.2970,-97.4049,0.0,4.3,94.0,5.3,'11111222,11111222,11111222' 
TCOON,ioos:station:TCOON:068:1,2009-09-02T22:00:00Z,27.2970,-97.4049,0.0,5.6,111.0,6.7,'11111222,11111222,11111222' 
TCOON,ioos:station:TCOON:068:1,2009-09-02T23:00:00Z,27.2970,-97.4049,0.0,4.8,108.0,5.8,'11111222,11111222,11111222' 
TCOON,ioos:station:TCOON:068:1,2009-09-03T00:00:00Z,27.2970,-97.4049,0.0,4.6,113.0,5.6,'11111222,11111222,11111222' 
TCOON,ioos:station:TCOON:068:1,2009-09-03T01:00:00Z,27.2970,-97.4049,0.0,6.3,123.0,7.2,'11111222,11111222,11111222' 
TCOON,ioos:station:TCOON:068:1,2009-09-03T02:00:00Z,27.2970,-97.4049,0.0,4.6,112.0,5.8,'11111222,11111222,11111222' 
TCOON,ioos:station:TCOON:068:1,2009-09-03T03:00:00Z,27.2970,-97.4049,0.0,5.0,119.0,5.8,'11111222,11111222,11111222' 
TCOON,ioos:station:TCOON:068:1,2009-09-03T04:00:00Z,27.2970,-97.4049,0.0,4.5,136.0,5.3,'11111222,11111222,11111222' 
TCOON,ioos:station:TCOON:068:1,2009-09-03T05:00:00Z,27.2970,-97.4049,0.0,4.7,142.0,5.8,'11111222,11111222,11111222' 
TCOON,ioos:station:TCOON:068:1,2009-09-03T06:00:00Z,27.2970,-97.4049,0.0,4.7,159.0,6.0,'11111222,11111222,11111222' 
TCOON,ioos:station:TCOON:068:1,2009-09-03T07:00:00Z,27.2970,-97.4049,0.0,4.4,197.0,4.8,'11111222,11111222,11111222' 
TCOON,ioos:station:TCOON:068:1,2009-09-03T08:00:00Z,27.2970,-97.4049,0.0,2.9,191.0,3.1,'11111222,11111222,11111222' 
TCOON,ioos:station:TCOON:068:1,2009-09-03T09:00:00Z,27.2970,-97.4049,0.0,1.8,178.0,2.1,'11111222,11111222,11111222' 
TCOON,ioos:station:TCOON:068:1,2009-09-03T10:00:00Z,27.2970,-97.4049,0.0,2.0,196.0,2.3,'11111222,11111222,11111222' 
TCOON,ioos:station:TCOON:068:1,2009-09-03T11:00:00Z,27.2970,-97.4049,0.0,1.7,194.0,2.0,'11111222,11111222,11111222' 
TCOON,ioos:station:TCOON:068:1,2009-09-03T12:00:00Z,27.2970,-97.4049,0.0,2.7,202.0,3.0,'11111222,11111222,11111222' 
TCOON,ioos:station:TCOON:068:1,2009-09-03T13:00:00Z,27.2970,-97.4049,0.0,2.8,204.0,2.9,'11111222,11111222,11111222' 
TCOON,ioos:station:TCOON:068:1,2009-09-03T14:00:00Z,27.2970,-97.4049,0.0,2.5,210.0,2.8,'11111222,11111222,11111222' 
TCOON,ioos:station:TCOON:068:1,2009-09-03T15:00:00Z,27.2970,-97.4049,0.0,3.6,181.0,4.0,'11111222,11111222,11111222' 
TCOON,ioos:station:TCOON:068:1,2009-09-03T16:00:00Z,27.2970,-97.4049,0.0,3.6,141.0,4.1,'11111222,11111222,11111222' 
TCOON,ioos:station:TCOON:068:1,2009-09-03T17:00:00Z,27.2970,-97.4049,0.0,3.2,156.0,3.9,'11111222,11111222,11111222' 
TCOON,ioos:station:TCOON:068:1,2009-09-03T18:00:00Z,27.2970,-97.4049,0.0,3.1,169.0,3.7,'11111222,11111222,11111222' 
TCOON,ioos:station:TCOON:068:1,2009-09-03T19:00:00Z,27.2970,-97.4049,0.0,3.8,116.0,5.4,'11111222,11111222,11111222' 
TCOON,ioos:station:TCOON:068:1,2009-09-03T20:00:00Z,27.2970,-97.4049,0.0,4.7,115.0,6.1,'11111222,11111222,11111222' 
TCOON,ioos:station:TCOON:068:1,2009-09-03T21:00:00Z,27.2970,-97.4049,0.0,5.0,102.0,5.9,'11111222,11111222,11111222' 
TCOON,ioos:station:TCOON:068:1,2009-09-03T22:00:00Z,27.2970,-97.4049,0.0,6.3,111.0,7.9,'11111222,11111222,11111222' 
TCOON,ioos:station:TCOON:068:1,2009-09-03T23:00:00Z,27.2970,-97.4049,0.0,5.9,109.0,6.9,'11111222,11111222,11111222' 
TCOON,ioos:station:TCOON:068:1,2009-09-04T01:00:00Z,27.2970,-97.4049,0.0,7.3,104.0,8.7,'11111222,11111222,11111222' 
TCOON,ioos:station:TCOON:068:1,2009-09-04T02:00:00Z,27.2970,-97.4049,0.0,7.1,108.0,8.5,'11111222,11111222,11111222' 
TCOON,ioos:station:TCOON:068:1,2009-09-04T03:00:00Z,27.2970,-97.4049,0.0,5.6,113.0,6.7,'11111222,11111222,11111222' 
TCOON,ioos:station:TCOON:068:1,2009-09-04T04:00:00Z,27.2970,-97.4049,0.0,5.2,125.0,16.7,'11111222,11111222,11111222' 
TCOON,ioos:station:TCOON:068:1,2009-09-04T05:00:00Z,27.2970,-97.4049,0.0,4.6,125.0,5.3,'11111222,11111222,11111222' 
TCOON,ioos:station:TCOON:068:1,2009-09-04T06:00:00Z,27.2970,-97.4049,0.0,4.3,142.0,5.5,'11111222,11111222,11111222' 
TCOON,ioos:station:TCOON:068:1,2009-09-04T07:00:00Z,27.2970,-97.4049,0.0,5.7,166.0,6.3,'11111222,11111222,11111222' 
TCOON,ioos:station:TCOON:068:1,2009-09-04T08:00:00Z,27.2970,-97.4049,0.0,4.9,194.0,99.0,'11111222,11111222,11144222' 
TCOON,ioos:station:TCOON:068:1,2009-09-04T09:00:00Z,27.2970,-97.4049,0.0,2.8,201.0,3.3,'11111222,11111222,11111222' 
TCOON,ioos:station:TCOON:068:1,2009-09-04T10:00:00Z,27.2970,-97.4049,0.0,3.0,207.0,3.6,'11111222,11111222,11111222' 
TCOON,ioos:station:TCOON:068:1,2009-09-04T11:00:00Z,27.2970,-97.4049,0.0,1.9,224.0,2.1,'11111222,11111222,11111222' 
TCOON,ioos:station:TCOON:068:1,2009-09-04T12:00:00Z,27.2970,-97.4049,0.0,0.9,328.0,1.2,'11111222,11111222,11111222' 
TCOON,ioos:station:TCOON:068:1,2009-09-04T13:00:00Z,27.2970,-97.4049,0.0,1.7,246.0,2.0,'11111222,11111222,11111222' 
TCOON,ioos:station:TCOON:068:1,2009-09-04T14:00:00Z,27.2970,-97.4049,0.0,1.2,274.0,1.4,'11111222,11111222,11111222' 
TCOON,ioos:station:TCOON:068:1,2009-09-04T15:00:00Z,27.2970,-97.4049,0.0,0.2,274.0,0.4,'11111222,11111222,11111222' 
TCOON,ioos:station:TCOON:068:1,2009-09-04T16:00:00Z,27.2970,-97.4049,0.0,0.9,52.0,1.2,'11111222,11111222,11111222' 
TCOON,ioos:station:TCOON:068:1,2009-09-04T17:00:00Z,27.2970,-97.4049,0.0,3.7,63.0,4.3,'11111222,11111222,11111222' 
TCOON,ioos:station:TCOON:068:1,2009-09-04T18:00:00Z,27.2970,-97.4049,0.0,3.2,74.0,3.9,'11111222,11111222,11111222' 
TCOON,ioos:station:TCOON:068:1,2009-09-04T19:00:00Z,27.2970,-97.4049,0.0,3.8,54.0,4.3,'11111222,11111222,11111222' 
TCOON,ioos:station:TCOON:068:1,2009-09-04T20:00:00Z,27.2970,-97.4049,0.0,4.0,97.0,5.1,'11111222,11111222,11111222' 
TCOON,ioos:station:TCOON:068:1,2009-09-04T21:00:00Z,27.2970,-97.4049,0.0,3.8,109.0,5.4,'11111222,11111222,11111222' 
TCOON,ioos:station:TCOON:068:1,2009-09-04T22:00:00Z,27.2970,-97.4049,0.0,4.9,80.0,5.8,'11111222,11111222,11111222' 
TCOON,ioos:station:TCOON:068:1,2009-09-04T23:00:00Z,27.2970,-97.4049,0.0,5.5,87.0,6.8,'11111222,11111222,11111222' 
TCOON,ioos:station:TCOON:068:1,2009-09-05T00:00:00Z,27.2970,-97.4049,0.0,5.2,93.0,6.2,'11111222,11111222,11111222' 
TCOON,ioos:station:TCOON:068:1,2009-09-05T01:00:00Z,27.2970,-97.4049,0.0,4.3,96.0,5.3,'11111222,11111222,11111222' 
TCOON,ioos:station:TCOON:068:1,2009-09-05T02:00:00Z,27.2970,-97.4049,0.0,4.5,99.0,5.6,'11111222,11111222,11111222' 
TCOON,ioos:station:TCOON:068:1,2009-09-05T03:00:00Z,27.2970,-97.4049,0.0,4.2,98.0,5.1,'11111222,11111222,11111222' 
TCOON,ioos:station:TCOON:068:1,2009-09-05T04:00:00Z,27.2970,-97.4049,0.0,3.4,108.0,4.4,'11111222,11111222,11111222' 
TCOON,ioos:station:TCOON:068:1,2009-09-05T05:00:00Z,27.2970,-97.4049,0.0,3.7,106.0,4.2,'11111222,11111222,11111222' 
TCOON,ioos:station:TCOON:068:1,2009-09-05T06:00:00Z,27.2970,-97.4049,0.0,3.8,116.0,4.6,'11111222,11111222,11111222' 
TCOON,ioos:station:TCOON:068:1,2009-09-05T07:00:00Z,27.2970,-97.4049,0.0,3.6,118.0,4.1,'11111222,11111222,11111222' 
TCOON,ioos:station:TCOON:068:1,2009-09-05T08:00:00Z,27.2970,-97.4049,0.0,2.4,131.0,2.9,'11111222,11111222,11111222' 
TCOON,ioos:station:TCOON:068:1,2009-09-05T09:00:00Z,27.2970,-97.4049,0.0,2.6,148.0,3.1,'11111222,11111222,11111222' 
TCOON,ioos:station:TCOON:068:1,2009-09-05T10:00:00Z,27.2970,-97.4049,0.0,1.0,152.0,1.2,'11111222,11111222,11111222' 
TCOON,ioos:station:TCOON:068:1,2009-09-05T11:00:00Z,27.2970,-97.4049,0.0,2.2,330.0,2.4,'11111222,11111222,11111222' 
TCOON,ioos:station:TCOON:068:1,2009-09-05T12:00:00Z,27.2970,-97.4049,0.0,3.1,346.0,3.4,'11111222,11111222,11111222' 
TCOON,ioos:station:TCOON:068:1,2009-09-05T13:00:00Z,27.2970,-97.4049,0.0,6.2,359.0,7.0,'11111222,11111222,11111222' 
TCOON,ioos:station:TCOON:068:1,2009-09-05T14:00:00Z,27.2970,-97.4049,0.0,4.1,351.0,4.7,'11111222,11111222,11111222' 
TCOON,ioos:station:TCOON:068:1,2009-09-05T15:00:00Z,27.2970,-97.4049,0.0,3.7,352.0,4.2,'11111222,11111222,11111222' 
TCOON,ioos:station:TCOON:068:1,2009-09-05T16:00:00Z,27.2970,-97.4049,0.0,3.5,351.0,4.2,'11111222,11111222,11111222' 
TCOON,ioos:station:TCOON:068:1,2009-09-05T17:00:00Z,27.2970,-97.4049,0.0,2.9,6.0,3.4,'11111222,11111222,11111222' 
TCOON,ioos:station:TCOON:068:1,2009-09-05T18:00:00Z,27.2970,-97.4049,0.0,0.5,201.0,0.7,'11111222,11111222,11111222' 
TCOON,ioos:station:TCOON:068:1,2009-09-05T19:00:00Z,27.2970,-97.4049,0.0,0.8,224.0,1.0,'11111222,11111222,11111222' 
TCOON,ioos:station:TCOON:068:1,2009-09-05T20:00:00Z,27.2970,-97.4049,0.0,4.1,32.0,4.7,'11111222,11111222,11111222' 
TCOON,ioos:station:TCOON:068:1,2009-09-05T21:00:00Z,27.2970,-97.4049,0.0,6.8,48.0,7.9,'11111222,11111222,11111222' 
TCOON,ioos:station:TCOON:068:1,2009-09-05T22:00:00Z,27.2970,-97.4049,0.0,4.8,83.0,5.5,'11111222,11111222,11111222' 
TCOON,ioos:station:TCOON:068:1,2009-09-05T23:00:00Z,27.2970,-97.4049,0.0,6.1,74.0,6.8,'11111222,11111222,11111222' 
TCOON,ioos:station:TCOON:068:1,2009-09-06T00:00:00Z,27.2970,-97.4049,0.0,4.5,81.0,5.3,'11111222,11111222,11111222' 
TCOON,ioos:station:TCOON:068:1,2009-09-06T01:00:00Z,27.2970,-97.4049,0.0,3.9,85.0,4.3,'11111222,11111222,11111222' 
TCOON,ioos:station:TCOON:068:1,2009-09-06T02:00:00Z,27.2970,-97.4049,0.0,3.1,71.0,3.6,'11111222,11111222,11111222' 
TCOON,ioos:station:TCOON:068:1,2009-09-06T03:00:00Z,27.2970,-97.4049,0.0,2.7,82.0,3.2,'11111222,11111222,11111222' 
TCOON,ioos:station:TCOON:068:1,2009-09-06T04:00:00Z,27.2970,-97.4049,0.0,1.3,69.0,1.4,'11111222,11111222,11111222' 
TCOON,ioos:station:TCOON:068:1,2009-09-06T05:00:00Z,27.2970,-97.4049,0.0,1.7,112.0,1.9,'11111222,11111222,11111222' 
TCOON,ioos:station:TCOON:068:1,2009-09-06T06:00:00Z,27.2970,-97.4049,0.0,1.8,69.0,2.0,'11111222,11111222,11111222' 
TCOON,ioos:station:TCOON:068:1,2009-09-06T07:00:00Z,27.2970,-97.4049,0.0,1.4,318.0,1.6,'11111222,11111222,11111222' 
TCOON,ioos:station:TCOON:068:1,2009-09-06T08:00:00Z,27.2970,-97.4049,0.0,2.2,318.0,2.4,'11111222,11111222,11111222' 
TCOON,ioos:station:TCOON:068:1,2009-09-06T09:00:00Z,27.2970,-97.4049,0.0,1.6,316.0,1.8,'11111222,11111222,11111222' 
TCOON,ioos:station:TCOON:068:1,2009-09-06T10:00:00Z,27.2970,-97.4049,0.0,3.5,325.0,3.8,'11111222,11111222,11111222' 
TCOON,ioos:station:TCOON:068:1,2009-09-06T11:00:00Z,27.2970,-97.4049,0.0,5.2,343.0,6.1,'11111222,11111222,11111222' 
TCOON,ioos:station:TCOON:068:1,2009-09-06T12:00:00Z,27.2970,-97.4049,0.0,3.9,352.0,4.6,'11111222,11111222,11111222' 
TCOON,ioos:station:TCOON:068:1,2009-09-06T13:00:00Z,27.2970,-97.4049,0.0,3.4,349.0,3.9,'11111222,11111222,11111222' 
TCOON,ioos:station:TCOON:068:1,2009-09-06T14:00:00Z,27.2970,-97.4049,0.0,3.4,1.0,3.7,'11111222,11111222,11111222' 
TCOON,ioos:station:TCOON:068:1,2009-09-06T15:00:00Z,27.2970,-97.4049,0.0,3.9,80.0,4.5,'11111222,11111222,11111222' 
TCOON,ioos:station:TCOON:068:1,2009-09-06T16:00:00Z,27.2970,-97.4049,0.0,2.9,87.0,3.3,'11111222,11111222,11111222' 
TCOON,ioos:station:TCOON:068:1,2009-09-06T17:00:00Z,27.2970,-97.4049,0.0,4.3,360.0,5.9,'11111222,11144222,11111222' 
TCOON,ioos:station:TCOON:068:1,2009-09-06T18:00:00Z,27.2970,-97.4049,0.0,4.7,60.0,5.6,'11111222,11111222,11111222' 
TCOON,ioos:station:TCOON:068:1,2009-09-06T19:00:00Z,27.2970,-97.4049,0.0,5.1,76.0,6.4,'11111222,11111222,11111222' 
TCOON,ioos:station:TCOON:068:1,2009-09-06T20:00:00Z,27.2970,-97.4049,0.0,6.3,78.0,7.5,'11111222,11111222,11111222' 
TCOON,ioos:station:TCOON:068:1,2009-09-06T21:00:00Z,27.2970,-97.4049,0.0,5.3,78.0,6.6,'11111222,11111222,11111222' 
TCOON,ioos:station:TCOON:068:1,2009-09-06T22:00:00Z,27.2970,-97.4049,0.0,5.4,85.0,7.3,'11111222,11111222,11111222' 
TCOON,ioos:station:TCOON:068:1,2009-09-06T23:00:00Z,27.2970,-97.4049,0.0,5.0,94.0,6.6,'11111222,11111222,11111222' 
TCOON,ioos:station:TCOON:068:1,2009-09-07T00:00:00Z,27.2970,-97.4049,0.0,5.7,108.0,6.5,'11111222,11111222,11111222' 
TCOON,ioos:station:TCOON:068:1,2009-09-07T01:00:00Z,27.2970,-97.4049,0.0,5.1,104.0,5.8,'11111222,11111222,11111222' 
TCOON,ioos:station:TCOON:068:1,2009-09-07T02:00:00Z,27.2970,-97.4049,0.0,4.0,108.0,5.6,'11111222,11111222,11111222' 
TCOON,ioos:station:TCOON:068:1,2009-09-07T03:00:00Z,27.2970,-97.4049,0.0,3.9,93.0,4.6,'11111222,11111222,11111222' 
TCOON,ioos:station:TCOON:068:1,2009-09-07T04:00:00Z,27.2970,-97.4049,0.0,4.2,118.0,5.5,'11111222,11111222,11111222' 
TCOON,ioos:station:TCOON:068:1,2009-09-07T05:00:00Z,27.2970,-97.4049,0.0,4.7,121.0,5.6,'11111222,11111222,11111222' 
TCOON,ioos:station:TCOON:068:1,2009-09-07T06:00:00Z,27.2970,-97.4049,0.0,3.0,129.0,3.8,'11111222,11111222,11111222' 
TCOON,ioos:station:TCOON:068:1,2009-09-07T07:00:00Z,27.2970,-97.4049,0.0,3.0,128.0,3.5,'11111222,11111222,11111222' 
TCOON,ioos:station:TCOON:068:1,2009-09-07T08:00:00Z,27.2970,-97.4049,0.0,1.8,148.0,2.1,'11111222,11111222,11111222' 
TCOON,ioos:station:TCOON:068:1,2009-09-07T09:00:00Z,27.2970,-97.4049,0.0,5.2,168.0,6.3,'11111222,11111222,11111222' 
TCOON,ioos:station:TCOON:068:1,2009-09-07T10:00:00Z,27.2970,-97.4049,0.0,2.8,211.0,3.0,'11111222,11111222,11111222' 
TCOON,ioos:station:TCOON:068:1,2009-09-07T11:00:00Z,27.2970,-97.4049,0.0,0.9,345.0,1.7,'11111222,11111222,11111222' 
TCOON,ioos:station:TCOON:068:1,2009-09-07T12:00:00Z,27.2970,-97.4049,0.0,0.2,55.0,0.3,'11111222,11111222,11111222' 
TCOON,ioos:station:TCOON:068:1,2009-09-07T13:00:00Z,27.2970,-97.4049,0.0,2.0,299.0,2.2,'11111222,11111222,11111222' 
TCOON,ioos:station:TCOON:068:1,2009-09-07T14:00:00Z,27.2970,-97.4049,0.0,1.6,332.0,1.9,'11111222,11111222,11111222' 
TCOON,ioos:station:TCOON:068:1,2009-09-07T15:00:00Z,27.2970,-97.4049,0.0,1.0,352.0,2.0,'11111222,11111222,11111222' 
TCOON,ioos:station:TCOON:068:1,2009-09-07T16:00:00Z,27.2970,-97.4049,0.0,1.3,196.0,1.5,'11111222,11111222,11111222' 
TCOON,ioos:station:TCOON:068:1,2009-09-07T17:00:00Z,27.2970,-97.4049,0.0,0.1,196.0,0.2,'11111222,11111222,11111222' 
TCOON,ioos:station:TCOON:068:1,2009-09-07T18:00:00Z,27.2970,-97.4049,0.0,4.6,84.0,5.8,'11111222,11111222,11111222' 
TCOON,ioos:station:TCOON:068:1,2009-09-07T19:00:00Z,27.2970,-97.4049,0.0,5.6,76.0,6.7,'11111222,11111222,11111222' 
TCOON,ioos:station:TCOON:068:1,2009-09-07T20:00:00Z,27.2970,-97.4049,0.0,6.8,78.0,99.0,'11111222,11111222,11144222' 
TCOON,ioos:station:TCOON:068:1,2009-09-07T21:00:00Z,27.2970,-97.4049,0.0,7.3,69.0,9.8,'11111222,11111222,11111222' 
TCOON,ioos:station:TCOON:068:1,2009-09-07T22:00:00Z,27.2970,-97.4049,0.0,6.9,87.0,9.1,'11111222,11111222,11111222' 
TCOON,ioos:station:TCOON:068:1,2009-09-07T23:00:00Z,27.2970,-97.4049,0.0,7.9,89.0,9.0,'11111222,11111222,11111222' 
TCOON,ioos:station:TCOON:068:1,2009-09-08T00:00:00Z,27.2970,-97.4049,0.0,7.5,91.0,8.5,'11111222,11111222,11111222' 
TCOON,ioos:station:TCOON:068:1,2009-09-08T01:00:00Z,27.2970,-97.4049,0.0,6.3,98.0,7.3,'11111222,11111222,11111222' 
TCOON,ioos:station:TCOON:068:1,2009-09-08T03:00:00Z,27.2970,-97.4049,0.0,4.7,118.0,5.7,'11111222,11111222,11111222' 
TCOON,ioos:station:TCOON:068:1,2009-09-08T04:00:00Z,27.2970,-97.4049,0.0,4.2,123.0,4.7,'11111222,11111222,11111222' 
TCOON,ioos:station:TCOON:068:1,2009-09-08T05:00:00Z,27.2970,-97.4049,0.0,3.7,127.0,4.2,'11111222,11111222,11111222' 
TCOON,ioos:station:TCOON:068:1,2009-09-08T06:00:00Z,27.2970,-97.4049,0.0,3.1,152.0,4.2,'11111222,11111222,11111222' 
TCOON,ioos:station:TCOON:068:1,2009-09-08T07:00:00Z,27.2970,-97.4049,0.0,2.6,134.0,3.2,'11111222,11111222,11111222' 
TCOON,ioos:station:TCOON:068:1,2009-09-08T08:00:00Z,27.2970,-97.4049,0.0,2.1,120.0,2.5,'11111222,11111222,11111222' 
TCOON,ioos:station:TCOON:068:1,2009-09-08T09:00:00Z,27.2970,-97.4049,0.0,7.5,214.0,8.2,'11111222,11111222,11111222' 
TCOON,ioos:station:TCOON:068:1,2009-09-08T10:00:00Z,27.2970,-97.4049,0.0,4.6,105.0,5.5,'11111222,11111222,11111222' 
TCOON,ioos:station:TCOON:068:1,2009-09-08T11:00:00Z,27.2970,-97.4049,0.0,1.6,141.0,1.9,'11111222,11111222,11111222' 
TCOON,ioos:station:TCOON:068:1,2009-09-08T12:00:00Z,27.2970,-97.4049,0.0,1.9,216.0,2.7,'11111222,11111222,11111222' 
TCOON,ioos:station:TCOON:068:1,2009-09-08T13:00:00Z,27.2970,-97.4049,0.0,1.2,205.0,1.4,'11111222,11111222,11111222' 
TCOON,ioos:station:TCOON:068:1,2009-09-08T14:00:00Z,27.2970,-97.4049,0.0,0.3,193.0,0.5,'11111222,11111222,11111222' 
TCOON,ioos:station:TCOON:068:1,2009-09-08T15:00:00Z,27.2970,-97.4049,0.0,1.2,193.0,1.5,'11111222,11111222,11111222' 
TCOON,ioos:station:TCOON:068:1,2009-09-08T16:00:00Z,27.2970,-97.4049,0.0,1.5,174.0,1.9,'11111222,11111222,11111222' 
TCOON,ioos:station:TCOON:068:1,2009-09-08T17:00:00Z,27.2970,-97.4049,0.0,4.5,120.0,5.2,'11111222,11111222,11111222' 
TCOON,ioos:station:TCOON:068:1,2009-09-08T18:00:00Z,27.2970,-97.4049,0.0,4.1,101.0,5.0,'11111222,11111222,11111222' 
TCOON,ioos:station:TCOON:068:1,2009-09-08T19:00:00Z,27.2970,-97.4049,0.0,5.7,95.0,6.6,'11111222,11111222,11111222' 
TCOON,ioos:station:TCOON:068:1,2009-09-08T21:00:00Z,27.2970,-97.4049,0.0,6.8,110.0,8.0,'11111222,11111222,11111222' 
TCOON,ioos:station:TCOON:068:1,2009-09-08T22:00:00Z,27.2970,-97.4049,0.0,6.6,120.0,7.8,'11111222,11111222,11111222' 
TCOON,ioos:station:TCOON:068:1,2009-09-08T23:00:00Z,27.2970,-97.4049,0.0,6.4,110.0,7.8,'11111222,11111222,11111222' 
TCOON,ioos:station:TCOON:068:1,2009-09-09T00:00:00Z,27.2970,-97.4049,0.0,7.6,111.0,9.0,'11111222,11111222,11111222' 
TCOON,ioos:station:TCOON:068:1,2009-09-09T01:00:00Z,27.2970,-97.4049,0.0,5.8,116.0,7.5,'11111222,11111222,11111222' 
TCOON,ioos:station:TCOON:068:1,2009-09-09T02:00:00Z,27.2970,-97.4049,0.0,4.2,119.0,5.6,'11111222,11111222,11111222' 
TCOON,ioos:station:TCOON:068:1,2009-09-09T03:00:00Z,27.2970,-97.4049,0.0,4.1,149.0,4.7,'11111222,11111222,11111222' 
TCOON,ioos:station:TCOON:068:1,2009-09-09T05:00:00Z,27.2970,-97.4049,0.0,4.9,147.0,5.9,'11111222,11111222,11111222' 
TCOON,ioos:station:TCOON:068:1,2009-09-09T07:00:00Z,27.2970,-97.4049,0.0,7.0,160.0,8.3,'11111222,11111222,11111222' 
TCOON,ioos:station:TCOON:068:1,2009-09-09T08:00:00Z,27.2970,-97.4049,0.0,5.4,158.0,6.1,'11111222,11111222,11111222' 
TCOON,ioos:station:TCOON:068:1,2009-09-09T09:00:00Z,27.2970,-97.4049,0.0,4.8,159.0,5.9,'11111222,11111222,11111222' 
TCOON,ioos:station:TCOON:068:1,2009-09-09T10:00:00Z,27.2970,-97.4049,0.0,4.0,166.0,5.0,'11111222,11111222,11111222' 
TCOON,ioos:station:TCOON:068:1,2009-09-09T11:00:00Z,27.2970,-97.4049,0.0,3.2,164.0,3.9,'11111222,11111222,11111222' 
TCOON,ioos:station:TCOON:068:1,2009-09-09T12:00:00Z,27.2970,-97.4049,0.0,3.6,142.0,4.2,'11111222,11111222,11111222' 
TCOON,ioos:station:TCOON:068:1,2009-09-09T13:00:00Z,27.2970,-97.4049,0.0,4.4,149.0,4.8,'11111222,11111222,11111222' 
TCOON,ioos:station:TCOON:068:1,2009-09-09T14:00:00Z,27.2970,-97.4049,0.0,3.3,144.0,4.3,'11111222,11111222,11111222' 
TCOON,ioos:station:TCOON:068:1,2009-09-09T15:00:00Z,27.2970,-97.4049,0.0,2.8,157.0,3.3,'11111222,11111222,11111222' 
TCOON,ioos:station:TCOON:068:1,2009-09-09T16:00:00Z,27.2970,-97.4049,0.0,3.0,152.0,3.8,'11111222,11111222,11111222' 
TCOON,ioos:station:TCOON:068:1,2009-09-09T17:00:00Z,27.2970,-97.4049,0.0,4.2,102.0,5.1,'11111222,11111222,11111222' 